Wind_Speed
21 20 20 21 22 23 24 26 27 28 28 28 27 27 27 28 29 30 31 33 34 36 39 41 43 44 46 47 47 47 46 46 47 47 47 47 47 46 45 45 45 45 45 44 42 40 38 37 36 34 33 33 31 30 30 28 26 24 22 20 17 14 11 8 9 9 11 11 9 8 4 2 2 3 7 11 12 14 17 17 16 14 14 14 13 13 14 15
22 22 22 22 23 25 26 27 28 29 30 30 30 29 29 29 29 30 31 33 34 35 37 39 42 44 45 46 47 48 48 47 48 47 47 49 49 47 46 46 46 46 45 45 43 42 40 38 37 35 35 35 33 32 31 30 28 26 23 21 18 16 13 8 9 11 11 12 9 8 6 4 1 3 7 11 11 13 16 17 17 15 13 13 13 13 13 15
25 25 26 26 27 28 29 30 30 31 31 32 32 32 31 31 31 31 32 33 34 35 36 38 40 43 44 46 47 49 49 49 48 47 48 50 50 49 48 47 46 46 46 45 45 43 41 40 38 37 37 36 35 34 33 32 30 28 25 22 20 19 17 12 11 13 12 12 10 10 7 4 3 4 8 9 9 12 16 17 17 15 14 12 13 13 13 15
29 30 30 31 31 32 33 34 34 34 34 34 34 35 34 33 33 33 34 34 34 35 36 37 39 41 44 45 47 49 50 50 48 48 49 50 51 51 50 48 47 47 47 46 46 45 43 41 39 38 37 36 36 35 35 34 32 30 26 24 22 21 22 19 15 14 14 14 11 10 6 4 4 6 8 7 9 12 15 16 16 16 14 12 12 12 13 15
32 33 34 34 35 35 36 37 38 38 38 37 37 37 37 37 36 35 35 36 36 37 37 38 39 40 42 45 47 48 50 51 49 50 50 50 52 52 51 50 49 49 48 47 47 46 44 42 41 40 38 36 36 36 36 36 34 32 28 26 25 23 24 22 17 14 16 17 15 11 7 5 4 7 7 6 8 11 13 14 16 16 14 12 12 12 12 14
34 35 36 37 37 38 38 39 40 41 41 41 41 40 40 40 39 38 38 38 38 39 39 39 40 41 42 44 46 48 49 50 51 52 51 51 53 53 53 52 51 50 49 49 48 47 45 44 42 41 39 37 36 37 37 37 36 34 30 29 28 25 24 22 18 16 18 20 18 15 11 7 4 5 5 5 8 10 12 13 15 16 14 13 12 12 12 14
36 37 38 39 39 40 41 41 42 42 43 44 44 44 43 43 43 42 41 40 40 41 41 40 41 41 43 44 45 48 49 50 52 53 52 52 54 54 54 54 53 51 50 50 49 48 47 45 43 42 41 39 39 39 39 39 38 35 32 31 30 28 26 24 21 19 20 20 19 17 14 9 6 5 4 5 7 8 10 12 14 15 14 13 12 12 12 14
39 40 40 40 41 41 42 43 43 44 44 45 46 47 46 46 46 46 45 44 43 42 42 43 43 43 44 45 45 47 48 50 52 53 54 54 55 54 55 55 54 53 52 51 50 49 47 46 45 43 42 41 41 41 41 41 40 38 35 33 33 30 27 26 24 21 20 20 19 17 12 9 8 7 5 5 6 7 8 10 12 13 14 14 13 12 12 14
42 43 43 42 42 42 43 44 45 46 46 47 48 49 49 49 49 49 49 48 47 45 44 44 45 45 45 46 47 47 48 50 52 53 55 56 56 55 56 56 55 54 53 52 51 50 48 48 46 45 44 43 43 42 42 42 42 41 38 36 35 32 29 27 24 23 22 20 19 17 13 11 10 8 6 5 6 6 7 9 11 12 14 15 14 13 12 14
45 45 45 44 45 45 45 45 46 47 48 49 49 51 52 52 51 52 52 51 50 49 47 46 47 48 48 48 48 48 49 50 52 53 55 57 57 56 57 57 56 55 54 53 52 51 49 49 47 46 46 45 44 43 43 43 43 42 40 38 36 33 31 29 26 25 24 21 19 18 16 13 11 10 9 7 7 6 7 8 9 11 13 14 15 13 12 13
49 49 48 48 48 48 49 49 49 49 50 51 51 52 54 55 55 54 54 54 54 53 51 49 48 49 50 50 49 49 49 51 52 54 55 57 58 58 58 57 57 56 55 54 53 52 50 50 49 49 48 47 46 44 44 44 44 44 42 39 37 36 33 31 28 27 25 22 20 19 17 15 14 13 11 8 8 7 6 7 8 9 12 13 14 14 12 13
52 53 54 53 52 53 53 53 52 52 52 52 53 54 55 57 57 57 57 57 56 56 55 53 51 50 51 52 51 50 51 52 53 54 56 58 58 59 59 58 57 58 57 55 54 53 52 51 51 51 49 48 47 46 46 46 46 46 44 41 38 37 33 31 31 28 26 24 22 21 19 16 14 14 12 9 9 9 7 7 7 7 10 12 13 14 13 13
56 58 59 59 58 58 58 57 56 56 55 55 55 56 57 58 59 60 60 60 59 58 57 56 54 52 52 52 53 53 54 54 55 55 56 58 59 60 60 59 58 59 58 57 55 54 53 52 52 52 51 49 48 48 48 48 47 47 46 43 40 38 34 32 31 29 27 25 23 22 20 18 16 15 13 10 10 10 8 7 6 6 9 11 12 13 13 14
61 62 64 64 63 62 62 62 61 60 59 59 59 59 58 58 60 62 63 62 61 60 60 59 57 56 54 53 55 57 57 56 55 55 56 57 58 60 61 60 59 59 59 58 57 56 55 55 54 54 53 51 50 50 50 49 49 49 48 45 43 40 37 34 31 29 27 25 23 22 20 19 18 17 16 13 12 11 9 8 6 5 8 10 11 12 13 14
65 66 68 67 66 66 66 67 66 65 64 63 62 62 60 60 60 62 64 65 64 63 62 61 60 59 57 55 56 58 58 57 56 55 55 56 58 59 60 60 60 60 59 59 58 57 57 56 56 55 55 54 53 52 52 51 50 50 49 47 45 42 40 36 31 29 28 24 22 21 20 20 19 18 17 15 14 13 11 9 7 5 7 9 10 11 12 13
69 70 71 70 69 69 70 70 71 70 69 67 65 63 62 61 61 63 65 66 65 64 64 63 62 62 60 59 58 58 58 57 56 55 55 56 57 59 60 61 61 61 60 61 60 59 58 57 56 56 57 56 55 54 53 53 52 52 50 48 46 43 41 38 33 30 29 26 23 22 22 22 21 20 19 16 16 15 12 11 9 6 6 8 9 10 11 12
72 72 72 72 72 72 73 74 74 73 71 69 66 63 62 61 61 63 64 66 66 66 66 65 65 64 63 62 59 58 57 58 57 57 57 57 58 59 60 61 62 62 62 62 62 61 60 58 57 58 58 58 56 56 55 55 54 52 51 50 48 44 42 40 37 33 31 29 25 24 24 23 23 22 20 17 17 16 13 11 11 8 6 7 8 8 9 11
73 74 74 74 75 75 76 76 75 73 70 67 63 61 60 60 60 62 64 66 66 66 67 67 67 66 66 64 62 59 59 60 60 60 59 59 60 60 61 62 63 63 63 63 63 63 61 60 59 59 59 59 58 58 57 55 53 52 52 51 49 46 44 42 40 36 32 30 28 26 26 26 25 23 20 18 18 17 14 12 12 10 7 7 8 7 8 9
74 75 76 77 78 78 78 77 74 69 64 61 58 56 56 57 58 60 62 64 66 67 68 69 69 68 67 67 65 62 61 62 63 62 62 62 61 61 61 62 63 64 65 64 65 64 63 62 61 61 61 62 62 60 57 54 53 53 53 52 51 48 46 44 43 40 35 31 29 28 28 29 27 24 21 19 19 19 16 13 13 12 9 7 8 7 6 7
76 77 78 79 80 80 79 74 68 61 56 53 51 50 51 53 56 58 61 63 65 67 69 69 70 69 69 68 67 65 64 64 64 64 64 63 62 61 62 62 63 64 66 66 66 66 65 64 64 64 64 64 63 60 57 55 55 56 55 55 54 51 49 47 44 43 39 33 31 29 29 30 28 25 22 20 20 19 18 15 14 15 11 8 9 7 5 6
78 79 80 81 82 81 76 68 60 53 48 46 44 44 45 48 52 55 59 62 65 68 69 70 71 71 70 70 69 68 66 65 65 66 65 64 63 62 62 62 62 64 67 68 67 67 66 66 67 66 66 64 62 60 58 57 57 58 57 57 56 53 51 49 46 44 41 36 33 31 30 30 28 25 23 22 22 20 19 17 16 16 14 10 10 9 7 6
81 82 82 83 83 80 71 60 52 46 42 40 39 39 41 43 46 51 55 60 63 67 70 71 71 71 71 71 71 71 69 67 67 68 67 66 65 64 63 63 63 65 68 69 69 68 69 70 69 67 66 65 63 62 60 58 58 60 59 58 58 56 53 50 50 48 41 37 37 34 33 32 29 27 25 23 23 22 20 19 18 17 15 13 11 11 10 7
83 84 84 85 83 76 64 54 46 41 38 35 34 35 37 39 42 46 50 56 61 65 69 71 72 73 73 72 73 73 72 70 69 69 69 68 66 65 64 64 65 66 68 70 71 71 72 72 70 68 67 66 66 64 62 60 60 61 61 60 60 58 55 53 53 52 43 38 38 36 35 34 32 29 27 26 25 24 22 21 20 18 16 15 13 12 12 10
85 86 86 86 81 69 58 50 42 37 33 31 30 31 33 35 38 41 45 51 56 62 67 71 73 74 74 74 74 74 74 72 71 71 70 69 68 66 66 66 67 68 70 72 73 74 74 73 70 69 69 68 67 65 63 62 62 62 63 63 61 60 58 56 56 54 47 40 37 36 36 35 35 32 29 27 26 25 24 23 22 20 17 16 15 14 13 12
87 87 88 85 76 63 54 46 38 33 29 26 26 26 28 31 35 38 41 45 51 58 64 69 72 74 75 74 74 75 75 75 73 72 72 71 69 67 66 67 68 69 70 72 74 75 74 72 71 71 70 70 69 67 65 64 63 63 64 64 63 62 61 59 57 56 52 44 36 34 37 38 37 34 32 30 28 27 26 24 24 23 19 18 17 16 15 14
88 89 88 82 70 58 51 43 36 30 26 23 22 23 25 28 31 34 37 41 46 53 60 67 71 74 75 75 75 75 76 76 75 74 73 72 71 69 67 67 69 70 71 72 74 75 75 73 73 72 71 71 70 68 67 66 65 65 65 65 65 64 63 62 60 57 56 49 40 35 38 40 39 36 34 33 31 29 27 25 25 24 21 20 19 17 16 15
89 89 87 78 64 55 48 40 33 28 23 20 19 20 22 24 27 30 34 38 43 49 56 63 69 72 74 75 75 76 77 77 77 76 75 74 72 71 69 69 70 70 71 72 74 75 76 75 74 73 73 73 71 70 69 68 67 67 66 66 66 65 64 63 62 60 58 53 47 42 40 40 40 38 35 34 33 32 29 26 26 26 24 22 21 19 17 17
90 90 85 72 60 53 46 38 31 26 22 18 16 17 19 22 24 27 31 35 40 46 52 59 65 70 73 74 76 76 77 78 78 77 76 75 74 72 71 70 70 71 71 72 74 76 77 76 75 75 75 75 73 72 71 70 70 69 67 66 66 66 65 65 64 63 60 56 51 47 43 40 40 39 36 33 33 33 31 29 29 29 27 25 22 20 18 18
90 89 82 67 56 51 44 36 30 25 20 16 14 14 16 19 22 25 28 32 37 42 47 54 61 67 71 74 75 76 77 79 79 78 77 77 76 74 72 71 71 72 72 72 74 77 78 76 75 75 75 76 76 74 73 72 71 70 68 67 67 67 67 67 66 65 63 60 55 49 45 42 41 40 37 35 33 33 34 33 32 31 29 26 23 21 21 19
90 88 78 63 54 49 42 35 28 24 19 15 12 12 13 15 19 22 25 30 34 38 43 50 57 63 69 72 75 76 77 79 79 78 78 78 77 75 74 72 72 72 73 73 74 76 76 75 75 75 77 78 77 75 74 73 71 70 69 68 67 68 69 68 68 67 66 64 59 52 48 45 42 41 40 37 33 34 35 34 33 31 29 26 24 23 23 21
90 86 75 59 52 48 40 33 27 23 19 14 10 9 9 12 15 18 22 27 31 35 40 46 52 59 66 70 74 76 77 78 79 79 79 78 78 76 75 73 72 72 73 74 75 75 74 74 75 76 79 79 78 76 74 73 71 70 69 69 68 68 69 68 68 68 68 66 63 57 53 50 45 42 42 39 35 35 36 35 34 32 29 26 25 23 23 23
90 84 71 57 50 47 39 31 25 22 19 13 9 8 6 8 10 14 19 23 27 32 37 42 49 55 62 68 72 75 76 78 79 79 80 79 79 78 76 75 73 73 74 75 76 75 74 74 76 78 80 80 79 77 74 73 72 71 70 69 68 67 68 69 68 69 69 68 65 61 58 56 50 44 42 40 37 37 37 36 35 33 30 27 25 24 23 24
89 82 68 55 49 46 37 29 24 21 18 13 9 7 5 5 7 10 14 19 24 29 34 39 45 51 58 65 70 73 75 77 78 80 80 80 80 79 78 76 74 74 75 77 77 76 75 75 77 79 80 80 79 77 74 74 73 73 71 70 69 68 67 69 70 71 71 70 67 63 60 59 56 50 46 44 41 40 39 39 38 36 32 29 26 25 24 24
88 80 66 53 49 45 37 29 23 20 17 13 9 6 5 5 5 6 10 14 20 25 30 35 40 46 53 60 66 71 74 75 77 79 79 80 80 80 79 78 76 75 76 78 78 77 76 76 77 80 81 81 80 78 77 77 77 76 75 74 72 70 69 70 72 74 72 71 68 65 62 61 59 56 52 48 45 43 43 42 41 38 35 31 28 26 25 25
87 78 64 52 48 45 37 28 22 19 17 13 10 8 7 6 6 6 7 11 16 21 26 31 36 42 47 54 61 67 71 74 75 77 78 79 80 80 80 78 77 77 77 78 78 77 76 77 78 80 82 83 82 81 80 80 80 79 78 76 74 72 72 72 73 74 72 71 69 66 65 63 60 56 55 52 49 46 46 46 44 41 37 32 28 26 27 27
86 76 62 51 47 44 37 29 23 19 18 15 12 11 9 8 7 6 7 9 13 17 23 28 33 38 43 48 55 62 68 71 74 75 77 78 79 80 80 79 78 77 78 79 79 77 77 78 79 80 82 84 84 82 81 81 81 80 78 76 75 75 74 73 72 72 72 72 70 67 66 65 61 58 56 55 52 49 47 47 46 44 41 35 30 28 28 29
85 74 60 50 46 44 37 29 24 20 19 17 15 13 10 9 7 6 7 8 11 15 20 25 30 35 39 44 50 56 62 68 71 74 76 77 79 80 80 79 78 78 78 79 79 78 78 79 80 81 82 84 85 83 82 82 82 81 79 78 78 77 75 73 72 71 72 72 71 69 67 67 65 62 60 58 55 51 48 47 45 44 43 38 33 31 31 32
84 72 58 49 46 44 37 30 25 20 19 18 16 14 12 10 8 6 6 8 10 13 17 22 26 32 36 41 46 52 58 63 68 72 74 76 78 79 80 79 79 78 78 79 79 79 79 80 82 82 83 84 85 84 83 82 82 81 81 81 81 78 75 74 73 71 71 72 71 70 69 68 67 67 65 63 59 55 51 49 46 43 43 40 35 33 34 34
82 70 57 48 46 44 37 30 25 20 18 18 17 16 13 11 8 7 7 8 9 12 15 19 24 28 33 38 43 48 54 59 64 69 72 75 77 78 79 79 79 79 79 79 80 80 80 82 83 83 84 84 85 84 82 82 82 82 82 82 80 78 76 76 75 74 73 73 72 72 71 70 70 69 68 67 65 61 56 53 50 46 43 41 38 36 36 36
81 69 56 48 46 44 38 30 25 20 17 17 18 17 15 12 10 9 9 9 10 12 14 18 21 25 30 36 41 46 51 56 61 66 70 74 76 78 79 80 80 80 80 80 80 80 81 83 84 84 84 84 83 83 83 83 84 84 83 81 78 77 77 76 76 75 74 74 73 72 72 72 72 71 70 68 67 66 62 58 56 52 46 43 42 40 38 37
79 67 54 48 46 44 38 30 24 20 17 16 17 17 16 14 13 12 12 12 13 14 15 16 19 23 27 32 38 43 49 54 59 63 68 71 75 77 79 80 81 81 81 81 81 81 82 84 85 85 85 83 82 83 84 85 86 86 84 83 81 79 78 77 76 75 74 74 73 72 73 74 73 72 71 70 68 68 67 63 60 58 53 48 46 43 40 38
78 65 54 48 47 45 38 30 23 20 17 15 16 17 17 16 15 15 14 14 15 16 17 17 18 21 25 29 35 40 46 51 56 61 65 68 72 76 78 80 81 81 81 82 82 82 83 84 85 85 85 84 83 83 85 86 87 86 85 84 84 83 81 79 77 76 76 75 74 73 73 74 75 74 73 72 70 69 69 68 65 63 59 54 51 48 45 42
75 63 53 49 48 45 38 30 23 20 17 15 16 17 18 18 17 17 17 16 16 17 19 20 21 21 23 27 32 37 43 49 54 58 63 67 71 74 77 79 81 82 82 82 82 83 83 84 85 85 85 85 84 84 85 86 86 85 85 84 84 83 82 81 80 79 78 77 76 75 73 74 76 76 75 74 73 71 71 71 70 68 64 60 57 54 50 47
73 62 53 50 48 44 38 30 24 19 17 16 16 17 19 19 18 18 18 18 18 19 20 22 24 25 26 27 30 35 40 46 51 56 60 65 69 73 75 78 80 82 82 83 83 83 84 85 85 86 86 86 86 85 84 84 85 84 84 84 84 83 83 82 82 81 79 78 76 75 75 74 75 77 76 76 76 74 73 73 73 72 69 65 62 59 56 51
71 60 53 51 49 44 37 30 23 18 17 17 17 18 19 19 19 19 20 20 20 21 22 24 27 29 30 31 32 34 38 43 48 53 58 63 68 71 74 77 80 81 82 83 83 84 84 85 86 86 86 86 85 84 82 82 83 83 83 84 84 85 84 84 83 82 80 78 77 76 75 75 75 76 77 77 78 77 75 74 75 74 73 70 67 64 60 56
69 59 53 52 50 44 37 29 22 17 17 18 18 18 19 19 20 21 21 22 22 23 25 26 29 31 33 34 35 36 38 41 46 51 57 61 66 70 73 76 79 81 82 83 83 84 85 85 86 86 86 86 85 84 83 83 83 83 84 85 85 86 86 86 85 83 81 80 78 77 76 76 76 76 77 77 78 79 78 76 76 76 75 73 71 68 64 60
67 58 54 53 50 43 36 28 21 17 17 18 18 18 19 20 20 21 22 23 24 25 26 27 29 32 35 37 37 37 39 42 45 50 55 59 64 67 71 75 78 80 81 82 82 84 85 85 85 86 86 86 86 86 86 85 84 84 85 86 86 86 87 87 86 85 84 82 80 78 77 78 78 77 77 77 78 79 80 78 77 77 76 75 73 71 67 64
65 58 55 54 49 41 34 26 19 16 18 18 17 17 19 20 21 21 22 23 25 26 27 27 29 32 35 38 39 40 41 43 46 49 53 57 62 65 69 73 77 79 80 81 82 83 84 85 85 85 86 86 87 86 86 86 85 86 86 87 87 87 87 87 88 87 86 84 83 81 80 79 79 78 77 77 77 79 80 80 79 78 77 76 74 72 70 66
63 58 57 53 46 38 31 23 17 16 17 17 16 17 18 19 20 21 22 23 25 27 27 27 27 29 33 37 40 42 43 45 47 49 52 55 59 64 68 71 74 77 79 80 81 82 83 84 85 85 86 86 87 87 87 87 87 86 86 87 88 88 87 88 88 88 88 87 86 84 82 81 80 79 78 77 77 78 80 82 81 79 78 77 75 73 71 69
62 60 58 52 44 35 27 20 16 15 15 15 15 16 17 18 19 20 22 23 25 26 26 25 25 26 29 34 39 43 45 47 49 50 52 55 57 61 66 69 72 74 76 78 79 81 82 84 84 85 86 86 87 87 87 88 88 87 87 87 88 88 88 88 89 89 89 89 88 87 85 84 82 81 79 78 78 78 79 81 82 81 79 78 77 74 72 71
63 61 57 50 41 32 24 17 15 14 13 13 13 14 15 17 18 20 22 23 24 24 23 21 21 22 25 30 36 42 46 49 50 52 53 55 56 59 62 66 69 72 74 76 78 80 82 83 83 84 85 86 87 87 88 88 88 89 88 88 88 88 89 89 89 90 90 90 90 88 87 86 85 84 82 81 80 79 79 80 81 81 80 79 78 77 74 72
63 61 56 47 38 29 21 15 13 12 11 11 12 12 14 15 16 19 21 22 23 22 20 18 17 19 22 26 32 39 45 49 51 53 54 55 56 58 60 62 65 68 71 74 76 78 79 81 82 83 85 86 86 87 88 88 89 90 90 89 88 88 88 89 89 90 90 91 90 90 90 89 88 86 85 83 82 81 80 79 79 80 81 80 79 78 76 74
Wind_Direction
300 298 296 295 294 293 292 290 289 286 282 277 272 267 262 257 252 249 247 246 246 247 246 243 239 237 236 236 235 233 231 230 229 229 230 230 229 227 226 226 226 226 226 227 226 223 220 218 218 218 216 212 208 206 205 202 201 200 198 195 190 186 178 180 196 198 210 213 223 241 239 253 279 39 41 39 30 25 31 29 31 34 34 41 47 50 55 60
299 295 293 291 290 289 287 286 285 284 282 280 275 270 265 260 255 251 248 245 244 244 245 245 242 238 235 234 234 233 231 229 228 227 228 230 229 227 226 226 225 225 225 226 226 223 220 218 217 216 215 212 207 206 204 202 201 201 200 192 183 174 157 151 184 194 205 207 207 205 195 202 197 80 53 43 33 31 34 31 31 35 37 39 46 49 50 55
298 295 292 290 289 287 286 284 282 281 280 279 276 273 267 263 258 254 249 246 243 242 241 243 243 241 236 233 233 233 231 229 227 226 227 229 229 228 226 225 224 224 224 224 224 223 220 217 216 216 215 212 207 205 204 202 200 201 200 189 180 170 153 147 171 182 187 185 179 176 178 193 171 93 64 49 38 38 37 33 31 33 39 39 44 49 47 48
299 295 292 290 288 287 286 284 282 280 279 277 276 274 271 266 261 257 253 248 244 241 240 239 240 241 239 235 231 231 231 229 227 225 226 227 228 228 226 225 224 224 223 222 223 223 221 217 216 216 216 213 208 205 203 201 200 200 198 189 180 173 167 166 172 177 172 164 166 170 167 200 174 94 75 60 45 43 39 35 32 33 40 41 42 48 46 42
304 300 297 293 290 287 285 284 282 280 278 276 275 274 273 270 265 260 255 251 247 242 239 238 237 238 239 237 233 230 230 229 226 225 224 225 227 228 226 225 223 223 223 221 221 222 220 217 215 215 215 213 209 206 203 201 199 199 197 190 181 178 181 179 179 186 176 164 166 168 167 201 169 94 82 72 56 48 42 37 35 35 39 44 43 46 46 41
308 305 302 298 295 291 287 284 282 280 278 276 274 273 272 271 268 264 259 254 250 245 240 237 236 236 236 237 235 231 228 228 227 225 223 223 225 226 226 225 223 222 222 221 220 220 220 217 214 214 214 212 209 207 204 202 200 198 196 191 182 182 188 186 186 190 181 172 167 165 166 185 170 102 91 82 70 55 47 42 40 38 41 45 45 46 46 42
310 306 303 300 297 294 290 286 283 280 278 276 273 271 270 269 268 266 263 258 252 248 243 238 235 235 234 234 235 233 229 227 226 225 222 222 224 224 224 224 223 222 221 220 219 219 219 217 214 213 213 211 209 206 204 202 199 198 195 192 185 182 186 187 191 190 184 179 169 165 165 174 176 137 118 99 82 66 56 49 45 42 45 49 47 47 45 43
313 309 304 300 297 294 292 288 285 281 278 276 274 271 268 266 266 265 263 261 256 251 246 241 236 234 233 232 233 233 230 227 225 225 222 221 222 223 223 224 224 222 221 220 219 218 217 217 215 212 212 211 209 207 205 202 199 197 195 194 189 182 185 189 192 192 190 184 172 168 169 173 172 157 149 121 96 79 66 57 52 47 50 54 52 49 46 44
315 312 306 301 298 295 292 289 286 282 279 276 273 271 268 265 263 262 261 260 258 254 249 244 239 234 232 232 230 230 231 228 225 224 222 221 221 221 222 223 223 222 220 219 218 217 215 216 215 212 211 211 209 208 206 203 200 198 195 195 191 183 185 190 193 194 194 188 178 177 180 179 171 166 168 142 115 97 79 66 59 54 54 58 57 53 48 46
316 313 309 304 300 297 294 291 287 284 281 277 273 271 269 266 262 260 259 258 257 256 251 246 242 237 233 231 230 228 229 229 225 223 222 221 220 220 221 222 222 222 220 219 218 216 215 215 214 213 212 211 210 208 207 204 201 199 197 196 192 185 184 188 194 196 194 189 183 186 188 184 178 176 176 158 138 119 94 79 67 61 59 60 61 58 52 49
316 315 312 307 304 301 297 294 290 286 282 279 275 271 269 266 263 260 257 256 254 254 253 249 244 239 235 232 229 227 228 228 227 223 222 221 220 219 219 220 221 221 221 219 217 216 214 213 213 213 212 211 210 208 207 206 203 200 198 196 193 190 185 186 194 197 194 191 188 192 193 188 185 181 178 170 153 137 111 94 78 67 66 64 64 63 58 54
317 316 314 311 307 303 299 296 293 289 285 281 277 272 268 266 263 260 256 254 252 251 251 250 246 241 237 233 230 228 227 226 226 224 221 220 220 219 218 218 219 220 220 219 217 216 214 213 212 213 212 210 209 208 208 206 204 201 199 196 194 194 191 189 194 195 193 194 194 196 199 198 193 183 179 181 167 150 127 108 91 78 74 69 68 67 64 60
318 317 316 313 309 305 301 298 295 292 288 284 279 274 269 265 262 259 256 253 250 249 248 249 247 244 239 235 231 228 226 224 224 224 222 220 219 219 218 217 217 219 220 218 216 215 214 213 212 212 212 210 209 208 208 207 205 202 200 196 194 195 194 193 194 193 193 197 198 200 206 209 202 190 185 189 179 160 139 122 107 91 84 76 73 71 69 66
318 317 316 314 310 307 303 300 298 294 291 286 281 276 270 265 261 258 256 252 249 246 245 246 246 244 241 236 232 229 227 225 223 223 223 221 219 219 218 216 216 218 219 219 217 214 214 213 211 211 211 210 208 208 208 207 206 203 201 198 196 196 195 194 192 191 193 197 201 203 209 212 205 198 195 195 186 168 149 136 125 107 94 84 79 75 73 71
319 318 316 314 311 308 305 302 299 296 292 288 282 277 271 265 260 256 254 251 248 245 243 242 242 242 241 238 234 230 227 225 223 222 223 222 220 219 218 216 215 216 218 219 218 215 214 213 211 210 210 209 208 208 207 207 206 204 202 199 197 197 195 194 190 187 190 194 198 201 204 207 204 201 201 201 191 174 158 149 145 123 106 95 86 81 77 74
320 318 316 314 311 308 306 303 300 297 293 289 283 277 271 264 258 254 251 249 247 244 241 239 238 239 239 237 234 231 228 226 224 222 222 222 221 219 218 216 214 215 217 218 217 215 214 213 212 210 211 210 208 207 207 207 207 205 203 200 198 197 196 194 188 185 189 189 193 199 201 204 204 203 202 204 197 183 169 160 157 140 120 109 95 88 83 80
320 318 316 314 311 309 307 304 301 298 294 288 282 276 269 262 256 251 248 246 244 242 240 237 236 235 235 236 234 231 228 225 223 222 220 220 220 219 217 215 213 213 214 216 217 216 214 212 212 211 211 210 208 207 206 206 207 205 204 201 198 196 195 192 187 188 189 186 190 200 204 206 206 205 203 206 204 196 186 174 165 153 137 125 106 95 92 86
320 318 316 314 312 310 308 305 302 298 293 287 280 273 266 259 253 248 245 242 241 239 238 236 234 233 232 233 233 231 228 224 222 221 219 218 219 218 216 215 213 212 213 215 216 215 214 212 212 212 211 211 209 208 206 205 206 206 205 202 199 196 196 193 189 191 191 185 189 199 206 208 206 205 203 206 210 206 200 188 174 163 152 140 123 107 98 92
320 319 317 316 314 313 311 308 304 299 293 286 278 271 263 256 250 245 241 239 237 236 235 234 233 231 230 230 230 229 227 224 221 219 219 217 217 217 216 214 212 211 211 213 215 215 213 212 211 212 211 210 210 207 204 203 205 206 205 203 201 197 196 194 192 196 197 190 190 197 205 208 207 206 203 205 211 212 208 198 182 172 163 153 141 127 107 98
322 320 319 318 317 316 314 311 306 300 292 285 277 269 261 253 247 242 238 235 233 232 232 231 231 230 228 228 228 228 227 225 221 218 218 217 216 216 216 214 211 211 211 211 213 214 213 212 211 211 211 210 209 206 202 202 205 207 205 204 202 198 196 194 192 198 202 197 194 195 203 209 207 207 205 206 211 212 211 206 192 179 171 162 154 148 130 114
323 322 322 321 321 320 318 314 308 301 293 285 276 268 260 252 246 240 236 232 230 229 228 228 228 228 227 226 225 226 225 224 221 219 217 216 215 214 215 213 211 211 210 210 212 213 213 212 211 211 210 209 208 205 202 201 204 207 206 205 203 199 196 193 191 198 201 196 193 193 200 208 207 207 207 207 209 209 211 211 199 185 178 171 164 161 154 140
325 325 325 325 325 324 321 316 310 302 294 285 276 267 259 252 246 240 235 231 227 226 226 225 225 225 225 224 223 223 223 223 221 218 216 215 214 213 213 213 211 210 210 210 210 211 212 212 211 211 210 208 207 205 203 202 204 207 207 205 204 201 196 192 193 199 198 192 192 191 195 204 206 208 212 212 209 209 211 210 202 191 185 179 173 172 169 159
328 328 328 329 329 327 323 318 312 304 296 286 276 266 258 251 245 240 235 231 226 224 223 223 223 223 223 222 221 221 221 221 221 219 216 214 213 212 211 212 211 210 210 209 209 210 211 211 211 210 210 208 206 205 203 203 205 207 207 206 205 202 197 193 195 199 198 194 194 191 191 200 205 206 212 214 210 210 211 207 201 196 193 190 183 179 179 173
330 331 331 332 331 329 325 321 315 307 298 288 277 266 257 250 245 239 235 231 226 223 222 221 220 220 220 220 219 219 219 219 220 219 216 213 212 212 210 211 211 209 209 209 208 209 211 211 210 209 210 208 206 205 204 204 205 207 207 206 205 203 199 195 196 200 200 197 197 193 190 197 204 203 205 211 211 210 210 205 200 201 202 199 191 184 185 182
332 333 334 334 333 330 327 323 318 311 302 289 277 265 255 249 244 239 234 230 226 223 221 219 219 218 218 218 218 218 217 217 218 218 216 213 212 211 210 210 211 210 209 209 209 209 210 211 211 210 209 208 206 204 204 205 206 207 208 207 205 204 201 197 196 201 203 199 197 195 192 197 203 201 199 206 212 211 209 206 204 205 206 205 199 190 188 188
334 335 337 336 334 332 329 325 321 316 306 293 278 264 254 247 242 238 233 230 226 223 221 219 218 217 217 216 216 216 216 216 216 216 215 213 211 210 210 209 211 211 210 209 209 208 209 210 210 210 210 209 206 204 205 206 206 207 208 207 206 205 203 199 196 200 203 201 200 197 194 197 200 200 198 202 208 211 210 209 208 208 209 209 205 196 191 189
336 338 339 338 335 333 331 327 324 320 311 298 280 263 253 245 241 236 232 229 225 222 220 219 217 216 215 215 214 215 215 215 215 215 214 213 211 210 209 209 210 211 210 209 209 209 209 209 209 210 210 210 207 204 205 206 207 208 208 207 206 205 205 202 199 201 204 202 203 202 200 200 199 199 201 199 203 209 211 212 212 211 212 211 206 202 197 192
338 340 340 339 336 335 332 329 327 323 315 302 282 265 252 244 239 234 230 227 224 222 220 219 217 216 215 214 214 214 214 214 214 213 213 213 211 209 209 209 209 210 211 210 209 209 208 208 209 209 210 210 208 206 205 206 207 207 207 208 207 205 206 205 201 203 205 203 202 203 205 205 201 199 201 199 201 206 209 212 214 213 213 211 206 204 203 199
340 341 341 340 337 336 334 331 329 325 318 305 286 267 252 243 237 233 229 226 224 221 219 218 217 216 215 214 213 213 213 213 213 212 212 212 211 209 209 209 208 209 210 210 210 209 208 207 208 210 211 211 209 206 205 206 207 207 207 208 207 206 206 206 204 204 206 205 201 199 202 205 203 199 199 199 201 207 209 211 215 214 210 209 208 206 206 206
342 342 343 340 338 338 334 331 330 326 320 310 294 274 256 245 236 231 228 225 224 220 218 217 217 216 215 214 213 213 212 212 212 211 211 211 211 209 209 208 208 208 209 210 210 210 208 207 208 210 211 212 211 207 206 207 207 206 207 208 208 207 207 207 206 205 207 207 204 200 200 203 202 199 198 198 201 207 210 213 216 215 209 208 209 210 210 210
343 343 343 341 339 339 335 331 329 327 322 315 304 287 265 249 238 230 226 224 223 220 217 216 215 215 215 215 214 213 212 212 211 210 210 210 210 209 209 209 208 208 209 210 210 209 208 207 207 209 212 213 212 208 206 206 207 207 207 209 209 208 208 208 208 207 207 208 207 204 203 204 202 197 196 197 200 203 208 212 214 214 212 209 210 211 213 213
344 344 343 341 340 339 336 332 328 326 323 319 314 305 283 260 242 231 225 222 221 219 217 215 214 214 214 215 215 214 213 212 211 210 209 209 209 209 209 208 208 208 208 209 210 209 207 206 207 209 211 213 213 210 207 206 207 207 208 209 210 209 209 210 209 210 209 209 209 206 205 206 204 198 195 197 198 200 205 210 212 213 214 212 211 211 215 219
345 345 344 341 341 340 337 332 327 323 320 317 316 313 304 284 257 237 227 222 219 217 216 215 214 213 213 214 215 215 215 214 212 210 209 209 209 208 208 208 208 208 208 209 209 208 206 206 207 208 210 212 213 210 207 207 208 208 208 209 210 210 210 211 211 211 210 210 210 208 206 208 207 204 201 198 197 198 202 208 211 213 215 214 213 212 217 224
345 345 344 341 341 341 337 332 326 319 314 312 310 308 303 292 271 249 234 225 220 218 216 215 214 213 213 212 213 215 215 215 213 210 208 209 209 208 208 208 208 208 208 209 209 208 206 206 207 207 209 212 213 211 208 208 208 208 208 208 208 209 210 211 212 212 210 210 211 208 207 209 208 207 205 200 197 198 201 206 208 212 214 214 214 216 220 228
346 345 344 341 341 341 337 332 323 313 307 301 295 291 286 280 269 253 241 230 224 220 216 215 214 214 213 212 212 214 215 215 214 211 209 208 209 208 208 208 208 208 208 209 209 208 206 206 207 207 208 210 212 210 209 208 209 209 208 207 208 209 210 211 212 212 211 211 213 210 208 209 208 206 203 201 200 200 202 205 207 208 209 209 212 218 225 231
346 345 343 341 341 341 337 330 321 309 301 292 281 275 271 268 261 250 242 236 229 223 218 215 214 213 213 212 212 213 214 214 214 212 210 208 208 208 208 208 208 208 208 208 208 208 207 207 207 207 208 210 211 210 209 209 209 209 209 208 209 210 211 211 212 212 211 212 214 212 209 209 209 206 204 203 203 203 205 206 207 208 206 203 207 215 223 230
345 345 343 341 341 341 336 328 319 307 299 290 278 271 265 258 252 244 237 234 232 228 221 216 215 214 213 212 211 212 213 213 213 212 210 209 208 208 208 208 208 209 209 209 208 207 207 208 208 208 208 210 210 210 210 210 210 209 208 209 210 211 211 212 211 211 212 212 214 214 211 210 210 209 208 207 206 205 206 207 208 210 209 204 203 209 216 225
345 344 342 340 341 340 336 328 318 307 299 291 279 270 263 254 248 244 240 233 229 229 226 220 216 215 213 212 211 211 212 212 212 211 210 209 208 208 208 208 208 209 209 209 208 207 207 208 208 208 209 209 210 210 210 210 211 210 210 210 210 210 212 212 211 211 212 212 214 216 214 211 212 212 212 211 210 208 207 206 206 207 206 202 202 208 212 218
344 344 342 340 340 340 336 327 317 306 297 289 278 269 262 253 244 244 247 243 232 228 227 224 220 216 214 213 212 210 211 211 211 211 210 209 208 207 208 208 208 209 209 210 209 208 208 208 209 209 209 209 209 209 209 210 211 211 212 212 211 211 212 213 212 211 211 212 213 215 215 213 213 214 213 212 212 212 209 207 206 204 199 196 200 209 213 214
344 343 341 339 339 339 336 328 317 305 291 282 274 267 262 254 245 241 244 249 246 234 227 225 223 219 215 214 212 211 211 211 211 211 210 209 208 207 207 208 208 208 209 210 210 208 208 209 210 209 209 209 209 209 209 210 211 211 212 212 212 213 214 214 214 213 212 212 213 214 215 215 215 215 215 213 212 213 212 209 208 206 199 195 200 208 214 215
343 341 339 338 338 338 335 328 317 303 286 275 269 263 258 252 247 242 238 241 247 245 237 229 224 222 219 216 213 212 212 211 211 211 211 210 208 208 208 208 208 209 209 210 209 209 209 210 210 210 210 209 209 209 209 210 211 211 211 211 211 213 214 214 215 215 214 214 214 215 215 216 215 215 216 216 213 212 213 212 211 210 206 201 201 206 212 216
342 340 338 337 337 337 334 327 316 301 283 270 263 258 255 251 247 243 237 234 237 243 245 241 232 226 222 219 216 213 212 212 212 211 211 210 209 209 208 209 209 209 209 210 209 209 210 210 211 211 210 209 209 209 210 210 211 211 211 211 211 212 213 213 214 215 215 215 215 215 216 216 217 216 216 217 215 213 213 213 212 213 211 208 205 205 209 214
341 339 337 336 336 336 332 325 313 298 280 265 258 255 255 253 248 242 238 233 232 234 239 243 242 236 227 222 219 216 214 213 213 212 211 211 210 209 209 209 210 210 210 210 210 210 210 211 211 211 211 210 209 210 210 211 211 211 211 211 212 213 214 213 214 215 215 215 215 216 216 217 217 217 216 217 218 215 213 213 213 214 214 213 211 209 210 214
340 337 336 335 335 334 330 322 312 298 279 261 252 251 253 252 248 244 240 235 234 233 234 236 240 241 236 229 223 219 216 214 213 213 212 212 211 210 210 210 210 211 211 211 210 210 211 211 211 211 211 210 210 210 210 211 211 212 212 212 213 214 215 214 215 215 216 216 217 217 218 218 218 218 217 218 220 218 215 213 214 215 215 216 217 215 215 216
339 336 335 334 334 332 327 320 312 298 276 259 249 247 250 251 248 245 244 241 239 238 237 236 236 238 239 235 227 221 219 216 214 213 213 213 212 211 210 211 211 211 211 211 211 211 211 212 212 211 211 211 211 210 211 211 212 212 212 213 213 214 215 215 216 216 216 217 217 218 219 219 219 219 218 218 220 221 219 216 214 215 217 218 220 220 218 217
338 335 334 334 333 330 325 319 311 294 272 256 249 248 251 252 249 246 247 248 247 245 243 241 239 237 237 236 231 224 219 217 216 214 214 214 213 212 212 211 212 212 212 212 212 211 212 212 212 212 212 212 211 211 211 211 211 212 213 213 214 214 215 216 216 216 217 217 218 218 220 220 220 220 219 218 219 221 222 219 217 216 218 219 221 221 221 218
337 335 334 334 332 328 323 318 309 290 268 255 251 252 254 254 252 249 252 255 256 254 251 248 244 241 238 236 232 227 221 217 217 216 215 214 214 213 213 213 213 213 213 212 212 212 213 213 213 213 213 212 212 211 211 211 211 212 212 213 214 214 215 216 216 216 216 217 218 219 220 221 221 221 220 219 219 221 222 222 220 218 218 220 221 222 223 221
336 334 334 334 331 327 321 316 305 285 267 256 254 256 257 257 255 254 257 261 263 263 261 257 251 245 239 235 231 227 223 219 217 216 216 215 214 214 214 214 214 214 213 213 213 213 213 213 213 213 213 213 213 212 212 212 211 212 212 213 214 214 215 216 216 217 217 217 218 218 219 220 221 221 221 221 220 220 222 223 223 221 220 220 221 222 223 222
335 334 335 334 330 325 319 312 299 280 266 257 255 257 258 257 257 259 262 266 269 270 269 265 257 246 238 233 229 225 222 219 216 215 216 216 215 215 214 214 214 214 214 214 213 213 214 214 214 214 214 214 214 213 213 213 213 213 213 213 214 215 215 216 217 217 218 218 218 219 219 220 221 221 222 222 221 221 222 222 223 223 222 222 222 222 223 223
335 335 335 333 329 324 317 307 292 278 266 255 253 256 257 257 260 265 269 272 275 277 275 269 260 248 237 230 226 223 220 218 215 213 213 215 216 215 215 215 215 215 214 214 214 213 214 214 214 215 215 215 215 214 214 214 213 213 214 214 214 215 216 216 217 218 218 219 219 219 220 220 221 221 222 222 223 222 223 223 223 224 224 224 224 223 223 223
336 335 335 332 328 322 314 301 287 280 267 254 252 255 257 260 266 273 278 281 283 283 280 272 262 250 237 228 224 221 219 217 215 213 211 212 214 215 216 215 215 215 215 215 215 214 214 214 214 215 216 216 216 215 215 215 214 214 214 215 215 215 216 216 217 218 219 219 220 221 221 221 221 221 221 222 223 223 223 223 223 224 224 225 225 224 223 223
336 335 334 331 326 321 312 296 284 279 265 252 252 254 256 263 275 284 289 292 293 291 285 277 265 251 237 226 221 220 218 216 215 213 211 210 211 214 215 215 215 215 215 215 215 215 215 215 214 215 216 217 217 216 216 216 216 215 215 215 215 216 216 217 218 218 219 220 221 221 222 222 222 222 222 222 223 223 224 224 224 224 225 225 225 225 224 223
Height
10909 10908 10906 10905 10903 10902 10901 10900 10899 10899 10899 10899 10899 10900 10900 10900 10901 10901 10902 10903 10904 10905 10906 10908 10910 10912 10915 10917 10920 10923 10927 10930 10933 10937 10941 10943 10944 10948 10951 10953 10956 10959 10962 10966 10971 10975 10978 10981 10984 10987 10990 10993 10996 10999 11001 11004 11007 11008 11010 11012 11014 11015 11016 11017 11017 11018 11018 11019 11020 11020 11021 11021 11021 11021 11020 11019 11018 11017 11015 11014 11012 11011 11010 11009 11008 11007 11006 11004
10907 10905 10904 10903 10901 10899 10898 10897 10896 10895 10895 10895 10895 10895 10896 10896 10896 10897 10897 10898 10899 10900 10901 10902 10904 10907 10909 10912 10914 10917 10921 10924 10928 10934 10937 10938 10941 10945 10947 10949 10952 10955 10959 10963 10967 10971 10975 10978 10981 10984 10987 10990 10994 10997 11000 11002 11005 11007 11009 11011 11013 11014 11015 11016 11016 11016 11017 11018 11019 11020 11020 11021 11021 11021 11021 11020 11020 11019 11017 11015 11013 11012 11011 11010 11009 11008 11008 11006
10905 10903 10902 10900 10899 10897 10895 10894 10892 10892 10891 10890 10890 10890 10891 10892 10892 10892 10892 10893 10894 10895 10896 10897 10899 10901 10904 10906 10909 10911 10915 10918 10923 10929 10931 10933 10937 10940 10942 10945 10948 10951 10955 10959 10963 10967 10971 10975 10979 10981 10984 10988 10992 10995 10997 11000 11003 11005 11008 11010 11012 11013 11014 11014 11015 11015 11016 11018 11018 11019 11020 11020 11021 11021 11021 11021 11020 11019 11017 11016 11014 11013 11012 11011 11010 11010 11009 11008
10902 10901 10899 10898 10896 10894 10892 10890 10889 10888 10887 10886 10886 10886 10886 10887 10888 10888 10888 10888 10889 10890 10891 10892 10894 10895 10898 10900 10903 10906 10909 10913 10919 10923 10925 10929 10932 10934 10938 10941 10944 10947 10950 10955 10959 10963 10968 10972 10976 10979 10982 10986 10990 10992 10995 10998 11001 11004 11006 11009 11010 11011 11012 11013 11014 11015 11016 11017 11018 11019 11019 11020 11021 11021 11021 11021 11021 11019 11018 11016 11015 11014 11012 11012 11012 11011 11011 11009
10899 10897 10896 10895 10893 10891 10889 10887 10885 10884 10883 10882 10881 10881 10881 10882 10882 10883 10884 10884 10884 10884 10885 10887 10888 10890 10892 10894 10897 10900 10903 10907 10913 10916 10920 10924 10926 10929 10934 10937 10940 10942 10946 10951 10955 10959 10964 10969 10973 10976 10979 10984 10988 10991 10993 10995 10998 11002 11004 11007 11009 11010 11011 11012 11013 11014 11015 11016 11017 11018 11019 11020 11021 11021 11021 11022 11021 11020 11019 11018 11017 11015 11014 11014 11013 11013 11012 11011
10895 10893 10892 10890 10888 10887 10885 10883 10881 10880 10878 10877 10877 10877 10876 10876 10876 10877 10878 10878 10879 10879 10880 10882 10883 10884 10886 10888 10891 10895 10898 10902 10906 10909 10914 10918 10920 10924 10929 10933 10935 10938 10941 10946 10950 10955 10960 10965 10970 10973 10977 10981 10985 10987 10990 10993 10996 10999 11002 11006 11008 11009 11010 11011 11012 11013 11015 11016 11016 11018 11019 11020 11021 11021 11022 11022 11021 11020 11020 11019 11018 11017 11015 11015 11015 11014 11013 11012
10892 10890 10887 10885 10883 10881 10880 10878 10877 10875 10873 10871 10871 10871 10871 10870 10870 10871 10871 10872 10873 10874 10876 10877 10878 10879 10880 10883 10885 10889 10892 10896 10899 10903 10908 10912 10914 10919 10924 10928 10931 10934 10937 10941 10946 10952 10957 10962 10966 10970 10974 10978 10981 10983 10987 10990 10994 10997 11001 11004 11006 11008 11009 11010 11011 11012 11014 11015 11016 11017 11019 11020 11022 11022 11022 11022 11022 11021 11021 11020 11019 11018 11017 11016 11016 11015 11014 11013
10888 10885 10883 10880 10878 10876 10873 10872 10870 10869 10868 10866 10864 10864 10864 10864 10864 10864 10865 10866 10867 10869 10870 10871 10872 10873 10874 10876 10879 10882 10886 10890 10893 10897 10902 10905 10909 10914 10918 10922 10926 10930 10933 10938 10943 10947 10953 10958 10963 10967 10971 10974 10977 10980 10983 10987 10991 10995 10998 11001 11004 11006 11007 11009 11010 11011 11013 11015 11016 11017 11019 11020 11021 11021 11022 11023 11023 11022 11022 11021 11021 11020 11019 11018 11017 11016 11015 11014
10882 10880 10877 10874 10872 10870 10868 10865 10863 10862 10861 10860 10859 10857 10856 10857 10857 10857 10858 10859 10860 10862 10864 10865 10866 10867 10868 10870 10873 10877 10880 10883 10887 10891 10895 10899 10903 10908 10913 10917 10922 10926 10930 10934 10938 10943 10949 10954 10959 10963 10966 10970 10973 10977 10980 10984 10988 10992 10995 10998 11002 11004 11006 11007 11009 11011 11013 11015 11016 11017 11019 11020 11021 11021 11022 11023 11023 11023 11023 11022 11022 11022 11021 11019 11018 11017 11016 11015
10876 10874 10871 10868 10865 10863 10861 10858 10856 10854 10853 10853 10852 10850 10849 10849 10849 10850 10850 10851 10852 10854 10856 10858 10860 10861 10863 10864 10867 10871 10873 10877 10881 10885 10889 10893 10898 10902 10906 10912 10917 10922 10925 10929 10934 10939 10945 10950 10955 10959 10962 10965 10970 10974 10978 10981 10985 10989 10993 10996 10999 11002 11004 11006 11008 11010 11012 11014 11015 11016 11018 11019 11020 11021 11022 11023 11024 11024 11024 11023 11023 11023 11022 11021 11019 11018 11017 11017
10869 10866 10864 10861 10858 10855 10852 10850 10849 10847 10845 10844 10844 10843 10841 10840 10840 10841 10842 10843 10844 10846 10848 10851 10852 10855 10857 10858 10861 10865 10867 10871 10875 10879 10883 10886 10891 10896 10901 10907 10913 10917 10921 10925 10930 10935 10941 10946 10950 10954 10957 10962 10967 10971 10975 10978 10982 10986 10990 10993 10997 11000 11003 11005 11007 11009 11011 11013 11014 11016 11017 11019 11020 11020 11021 11022 11023 11024 11025 11024 11024 11024 11023 11022 11020 11019 11018 11018
10861 10858 10855 10852 10849 10846 10843 10841 10839 10837 10836 10835 10834 10833 10832 10831 10831 10831 10832 10834 10835 10838 10840 10843 10845 10848 10850 10852 10856 10858 10860 10863 10867 10872 10876 10880 10885 10890 10895 10901 10907 10912 10916 10921 10926 10931 10936 10941 10945 10949 10953 10958 10964 10968 10971 10974 10978 10982 10986 10991 10995 10999 11002 11004 11005 11007 11010 11012 11013 11015 11017 11018 11019 11020 11021 11022 11023 11024 11025 11025 11025 11024 11024 11023 11022 11020 11019 11019
10853 10850 10846 10842 10839 10836 10833 10830 10828 10826 10825 10824 10823 10821 10821 10821 10821 10821 10822 10823 10826 10829 10832 10834 10837 10840 10843 10846 10850 10851 10852 10856 10860 10865 10870 10875 10879 10884 10889 10896 10902 10906 10911 10916 10921 10926 10931 10935 10940 10944 10949 10955 10960 10964 10967 10970 10974 10979 10983 10988 10992 10996 10999 11002 11004 11007 11009 11011 11012 11014 11016 11017 11018 11019 11021 11022 11023 11024 11025 11025 11025 11025 11024 11024 11023 11022 11021 11020
10845 10841 10837 10832 10829 10825 10822 10818 10816 10814 10813 10811 10810 10808 10809 10809 10810 10810 10810 10812 10815 10819 10823 10826 10829 10832 10835 10839 10841 10843 10846 10850 10855 10860 10865 10870 10874 10879 10884 10891 10897 10902 10907 10912 10916 10921 10925 10930 10934 10940 10945 10950 10955 10959 10963 10967 10971 10975 10980 10985 10989 10993 10997 11000 11003 11005 11008 11009 11011 11013 11014 11016 11017 11019 11020 11021 11023 11024 11025 11025 11026 11026 11025 11024 11024 11023 11022 11021
10836 10831 10827 10822 10818 10814 10810 10806 10803 10801 10799 10796 10795 10794 10794 10796 10797 10797 10797 10800 10804 10808 10813 10817 10820 10823 10827 10831 10833 10836 10841 10845 10850 10855 10860 10865 10870 10874 10879 10886 10892 10897 10902 10907 10911 10916 10921 10924 10930 10935 10940 10944 10950 10955 10959 10963 10968 10972 10976 10982 10987 10991 10995 10998 11001 11004 11006 11008 11009 11011 11012 11014 11016 11018 11019 11021 11022 11023 11024 11025 11026 11026 11025 11025 11024 11024 11023 11022
10826 10821 10816 10812 10808 10803 10798 10793 10788 10786 10783 10780 10778 10778 10778 10780 10781 10782 10784 10788 10792 10797 10802 10806 10809 10813 10817 10821 10825 10829 10835 10840 10845 10850 10854 10859 10863 10868 10873 10880 10886 10891 10897 10901 10906 10911 10915 10920 10927 10931 10934 10939 10945 10950 10955 10959 10963 10968 10973 10978 10984 10989 10992 10996 11000 11003 11005 11006 11008 11010 11010 11012 11014 11016 11018 11020 11022 11023 11024 11025 11026 11026 11026 11025 11025 11025 11024 11024
10817 10811 10806 10801 10796 10791 10785 10779 10773 10769 10765 10761 10760 10760 10760 10762 10765 10768 10771 10774 10780 10785 10790 10795 10799 10803 10807 10812 10817 10823 10829 10834 10838 10842 10846 10851 10856 10862 10867 10873 10879 10885 10890 10895 10901 10905 10910 10916 10922 10925 10930 10936 10941 10946 10950 10955 10960 10966 10971 10976 10981 10986 10989 10993 10997 11000 11003 11004 11006 11008 11009 11011 11013 11015 11017 11019 11021 11022 11023 11025 11026 11026 11026 11026 11026 11026 11026 11025
10808 10801 10795 10789 10784 10778 10771 10763 10757 10751 10746 10742 10741 10741 10743 10745 10748 10753 10757 10761 10767 10773 10778 10783 10788 10793 10798 10803 10809 10815 10820 10824 10828 10833 10838 10842 10848 10854 10860 10866 10872 10879 10884 10889 10894 10900 10906 10911 10915 10920 10926 10931 10935 10940 10946 10953 10959 10964 10969 10974 10979 10983 10986 10991 10995 10997 10999 11002 11004 11006 11008 11010 11011 11013 11016 11018 11020 11022 11023 11024 11025 11026 11026 11026 11026 11027 11027 11026
10799 10791 10784 10777 10770 10763 10755 10746 10739 10732 10727 10724 10723 10724 10726 10729 10733 10737 10742 10748 10755 10761 10766 10771 10777 10783 10788 10794 10800 10806 10810 10814 10820 10825 10829 10834 10841 10847 10853 10859 10866 10872 10877 10882 10888 10894 10900 10905 10909 10914 10919 10923 10928 10935 10944 10952 10957 10960 10964 10969 10974 10979 10983 10987 10991 10994 10996 11000 11002 11004 11006 11008 11009 11011 11014 11017 11019 11021 11022 11024 11025 11025 11026 11026 11026 11027 11028 11027
10789 10781 10774 10765 10757 10748 10738 10729 10721 10715 10710 10708 10707 10708 10711 10713 10717 10722 10728 10735 10742 10748 10754 10760 10766 10773 10778 10785 10791 10797 10801 10806 10812 10817 10822 10828 10835 10841 10847 10853 10860 10865 10870 10876 10882 10888 10894 10899 10903 10907 10911 10916 10924 10933 10942 10949 10953 10955 10959 10963 10968 10973 10978 10983 10988 10991 10994 10998 11001 11003 11004 11006 11008 11010 11013 11016 11018 11019 11021 11023 11024 11025 11026 11026 11026 11027 11028 11028
10779 10771 10763 10753 10743 10733 10722 10713 10706 10700 10697 10695 10694 10695 10697 10700 10704 10709 10715 10722 10729 10735 10741 10748 10754 10761 10768 10776 10782 10787 10792 10798 10804 10809 10815 10821 10828 10834 10840 10847 10854 10859 10864 10869 10875 10882 10888 10892 10896 10900 10906 10914 10923 10931 10938 10945 10949 10950 10954 10959 10964 10969 10974 10979 10985 10987 10990 10995 10999 11001 11003 11004 11006 11009 11011 11014 11016 11018 11020 11022 11023 11024 11025 11026 11026 11027 11028 11028
10768 10760 10751 10741 10730 10718 10708 10700 10693 10689 10686 10684 10684 10685 10687 10689 10693 10697 10703 10709 10717 10724 10729 10736 10743 10750 10758 10765 10772 10777 10783 10790 10795 10801 10807 10813 10820 10827 10834 10841 10847 10851 10857 10863 10869 10876 10881 10884 10889 10896 10903 10911 10919 10926 10933 10940 10943 10946 10950 10955 10959 10964 10970 10976 10979 10981 10985 10991 10995 10998 11000 11002 11005 11007 11010 11012 11015 11016 11018 11020 11022 11024 11025 11026 11026 11027 11027 11028
10759 10749 10740 10729 10717 10706 10697 10690 10684 10680 10677 10676 10676 10676 10678 10680 10683 10688 10693 10699 10706 10713 10718 10725 10732 10739 10746 10754 10761 10767 10774 10781 10786 10793 10799 10805 10813 10820 10827 10833 10839 10844 10850 10855 10861 10866 10871 10876 10884 10893 10899 10906 10913 10920 10928 10934 10937 10941 10945 10949 10954 10960 10966 10970 10973 10977 10982 10986 10990 10994 10997 11000 11002 11005 11008 11010 11013 11015 11016 11018 11020 11022 11024 11025 11026 11027 11027 11028
10749 10739 10729 10718 10706 10696 10688 10682 10677 10673 10671 10669 10669 10670 10671 10673 10675 10680 10684 10690 10697 10703 10708 10715 10721 10728 10735 10744 10752 10758 10766 10772 10778 10785 10792 10799 10806 10813 10820 10826 10831 10836 10842 10847 10853 10858 10864 10872 10881 10887 10893 10900 10907 10915 10922 10927 10931 10936 10939 10944 10950 10955 10961 10966 10970 10974 10979 10983 10987 10991 10995 10998 11000 11003 11006 11008 11010 11013 11014 11016 11018 11021 11023 11024 11026 11027 11027 11028
10740 10730 10720 10709 10698 10688 10681 10675 10671 10668 10665 10664 10664 10664 10665 10667 10669 10673 10677 10682 10688 10694 10699 10705 10711 10718 10726 10735 10743 10750 10757 10763 10770 10777 10784 10792 10799 10806 10814 10820 10824 10830 10835 10841 10846 10852 10860 10869 10877 10882 10888 10894 10901 10909 10916 10921 10926 10930 10934 10940 10946 10951 10957 10962 10967 10971 10976 10981 10984 10988 10992 10995 10997 11000 11003 11006 11008 11011 11013 11015 11017 11019 11021 11023 11025 11026 11027 11027
10732 10722 10711 10700 10690 10683 10676 10670 10667 10664 10661 10660 10659 10659 10660 10662 10664 10667 10671 10676 10681 10686 10691 10696 10702 10709 10717 10727 10735 10741 10748 10755 10762 10769 10777 10785 10792 10800 10807 10813 10818 10824 10829 10835 10841 10848 10856 10864 10871 10877 10883 10888 10896 10904 10910 10915 10920 10924 10929 10935 10941 10947 10953 10959 10964 10968 10973 10978 10982 10986 10989 10991 10994 10998 11001 11003 11006 11008 11011 11013 11015 11017 11019 11021 11023 11025 11026 11027
10725 10715 10704 10693 10685 10678 10672 10667 10663 10660 10658 10656 10656 10656 10656 10658 10660 10663 10666 10670 10674 10679 10684 10689 10695 10702 10710 10719 10726 10733 10740 10748 10754 10762 10770 10778 10785 10793 10800 10806 10812 10818 10824 10830 10837 10844 10851 10857 10865 10872 10877 10882 10890 10898 10903 10908 10913 10918 10923 10930 10937 10944 10950 10956 10962 10965 10969 10974 10979 10983 10987 10990 10993 10996 10998 11001 11004 11006 11009 11012 11013 11015 11017 11019 11021 11023 11025 11026
10718 10708 10698 10688 10680 10674 10668 10664 10660 10658 10656 10654 10653 10653 10653 10654 10656 10659 10661 10664 10668 10672 10677 10683 10689 10696 10704 10711 10718 10725 10732 10739 10746 10755 10763 10771 10779 10786 10793 10799 10805 10812 10818 10825 10831 10837 10844 10852 10860 10866 10871 10876 10883 10890 10895 10901 10906 10912 10920 10927 10933 10940 10945 10951 10956 10960 10964 10969 10974 10979 10983 10987 10991 10994 10996 10999 11002 11004 11007 11009 11011 11013 11014 11017 11019 11021 11023 11025
10713 10703 10693 10684 10677 10671 10665 10661 10658 10656 10654 10652 10651 10650 10651 10652 10653 10655 10657 10660 10663 10667 10673 10678 10684 10690 10697 10704 10711 10718 10724 10731 10740 10749 10756 10764 10772 10779 10786 10793 10799 10806 10812 10819 10825 10830 10838 10848 10856 10862 10866 10869 10875 10882 10889 10895 10902 10909 10917 10922 10928 10934 10939 10944 10950 10955 10959 10963 10969 10974 10978 10983 10988 10991 10994 10996 10999 11001 11003 11006 11008 11010 11013 11014 11016 11019 11021 11023
10708 10698 10689 10680 10674 10668 10663 10659 10656 10654 10652 10650 10649 10649 10649 10649 10650 10652 10654 10656 10659 10664 10669 10673 10679 10685 10691 10698 10705 10711 10717 10725 10733 10742 10749 10757 10765 10773 10780 10787 10794 10800 10806 10813 10818 10826 10836 10846 10852 10858 10861 10862 10869 10878 10886 10892 10900 10907 10913 10918 10923 10929 10935 10940 10946 10950 10954 10959 10965 10970 10974 10978 10983 10988 10990 10993 10996 10999 11001 11003 11006 11009 11011 11012 11014 11017 11019 11021
10703 10693 10685 10677 10671 10666 10661 10657 10655 10653 10651 10649 10648 10648 10647 10648 10649 10650 10651 10653 10656 10660 10664 10668 10673 10679 10686 10692 10698 10704 10711 10718 10726 10734 10742 10750 10759 10767 10774 10781 10789 10795 10801 10807 10813 10821 10832 10841 10847 10851 10853 10856 10864 10873 10882 10890 10897 10903 10909 10914 10919 10925 10931 10936 10941 10946 10950 10955 10961 10966 10970 10974 10978 10983 10986 10990 10994 10997 10999 11001 11003 11005 11007 11009 11011 11014 11017 11019
10699 10690 10681 10675 10669 10664 10660 10656 10653 10651 10650 10649 10648 10647 10647 10647 10647 10648 10650 10651 10654 10656 10660 10663 10668 10673 10680 10686 10692 10699 10705 10712 10719 10727 10734 10743 10751 10759 10767 10774 10782 10788 10794 10800 10805 10815 10825 10833 10837 10841 10845 10851 10859 10869 10879 10886 10892 10898 10905 10910 10915 10922 10928 10932 10937 10940 10945 10950 10956 10961 10966 10969 10974 10979 10983 10986 10991 10994 10996 10998 11000 11002 11004 11007 11009 11012 11015 11018
10695 10686 10678 10672 10667 10662 10658 10655 10652 10650 10649 10648 10647 10646 10646 10646 10647 10647 10649 10650 10651 10653 10656 10659 10663 10668 10674 10680 10687 10693 10699 10706 10713 10720 10728 10736 10743 10751 10759 10767 10774 10780 10786 10791 10797 10807 10817 10823 10828 10834 10840 10847 10854 10865 10876 10882 10886 10892 10898 10903 10910 10917 10922 10927 10930 10933 10939 10945 10950 10956 10962 10966 10970 10974 10978 10982 10987 10991 10994 10995 10997 10999 11002 11005 11008 11010 11013 11015
10692 10683 10676 10670 10665 10660 10656 10653 10651 10649 10648 10647 10646 10646 10646 10646 10646 10647 10648 10649 10650 10651 10654 10657 10660 10664 10669 10675 10681 10687 10693 10699 10706 10714 10722 10729 10736 10744 10752 10760 10767 10773 10779 10785 10792 10801 10809 10815 10822 10828 10835 10841 10848 10858 10868 10872 10876 10881 10887 10893 10901 10908 10913 10917 10920 10924 10932 10939 10945 10951 10957 10960 10965 10969 10974 10979 10982 10986 10990 10992 10995 10997 11000 11003 11006 11008 11010 11012
10688 10680 10673 10667 10663 10658 10654 10652 10650 10648 10647 10646 10646 10645 10645 10645 10645 10646 10646 10647 10648 10650 10652 10654 10658 10661 10666 10671 10676 10681 10686 10693 10700 10708 10716 10723 10730 10738 10746 10753 10760 10767 10773 10779 10787 10796 10804 10809 10815 10822 10828 10832 10839 10849 10857 10862 10868 10874 10880 10887 10895 10900 10903 10907 10912 10920 10930 10936 10942 10947 10952 10955 10960 10966 10971 10975 10978 10981 10985 10989 10992 10995 10997 11001 11004 11006 11007 11009
10685 10677 10671 10665 10661 10656 10653 10650 10648 10646 10646 10645 10644 10644 10644 10644 10644 10645 10645 10646 10647 10648 10650 10652 10655 10658 10662 10667 10672 10676 10681 10687 10695 10703 10710 10717 10724 10731 10740 10748 10754 10761 10767 10773 10781 10790 10798 10803 10808 10815 10820 10824 10831 10841 10850 10856 10862 10868 10877 10885 10890 10892 10896 10901 10909 10918 10926 10932 10938 10943 10947 10952 10958 10963 10968 10971 10974 10978 10981 10985 10989 10992 10995 10998 11000 11003 11005 11006
10681 10674 10668 10663 10659 10655 10651 10648 10646 10645 10644 10643 10643 10642 10642 10642 10643 10643 10644 10645 10646 10647 10648 10650 10653 10655 10659 10663 10668 10672 10677 10683 10689 10696 10704 10711 10718 10725 10733 10741 10748 10755 10761 10767 10775 10783 10791 10796 10802 10808 10813 10818 10825 10835 10843 10850 10856 10864 10873 10877 10880 10885 10892 10899 10907 10915 10921 10928 10934 10938 10943 10949 10954 10958 10962 10965 10970 10974 10978 10982 10986 10989 10991 10994 10996 11000 11003 11003
10678 10671 10665 10661 10656 10652 10649 10646 10644 10642 10642 10641 10641 10640 10640 10641 10641 10642 10643 10644 10644 10645 10646 10648 10651 10653 10657 10660 10664 10669 10673 10678 10684 10691 10698 10705 10712 10719 10727 10734 10742 10749 10755 10762 10769 10776 10783 10788 10794 10800 10805 10811 10819 10828 10838 10846 10854 10861 10865 10867 10873 10882 10890 10895 10903 10910 10916 10923 10929 10932 10937 10943 10947 10950 10954 10959 10965 10969 10974 10978 10982 10985 10988 10990 10993 10996 10999 11001
10674 10668 10663 10658 10654 10650 10646 10643 10641 10640 10639 10639 10638 10638 10638 10639 10639 10640 10641 10642 10643 10644 10645 10646 10649 10651 10654 10657 10661 10665 10669 10674 10680 10686 10692 10699 10706 10714 10721 10728 10736 10742 10749 10754 10762 10770 10776 10780 10786 10792 10798 10805 10813 10823 10834 10842 10848 10854 10858 10864 10874 10881 10884 10889 10896 10902 10908 10914 10920 10924 10930 10936 10938 10942 10947 10953 10959 10964 10969 10973 10977 10981 10983 10986 10989 10992 10995 10997
10671 10665 10660 10655 10651 10648 10644 10641 10639 10637 10637 10636 10636 10636 10636 10637 10637 10638 10639 10640 10641 10642 10643 10645 10647 10649 10652 10655 10658 10662 10666 10671 10675 10681 10687 10694 10701 10708 10714 10722 10729 10735 10741 10747 10755 10763 10769 10774 10779 10785 10792 10801 10811 10821 10828 10834 10839 10845 10852 10862 10872 10877 10881 10887 10892 10897 10903 10908 10912 10917 10922 10927 10931 10936 10941 10947 10953 10958 10963 10967 10971 10975 10977 10981 10985 10988 10991 10993
10667 10661 10657 10652 10648 10645 10641 10638 10636 10635 10634 10633 10633 10634 10634 10634 10635 10635 10637 10638 10639 10640 10641 10643 10645 10647 10649 10652 10656 10659 10663 10667 10671 10676 10683 10689 10696 10703 10709 10715 10721 10727 10734 10740 10748 10755 10761 10766 10771 10778 10787 10797 10806 10813 10819 10823 10829 10837 10845 10854 10862 10867 10873 10880 10887 10893 10899 10904 10908 10912 10915 10920 10925 10930 10935 10941 10947 10952 10956 10961 10965 10968 10972 10975 10979 10983 10986 10988
10663 10658 10653 10649 10645 10641 10638 10635 10633 10631 10631 10630 10630 10631 10631 10632 10633 10633 10634 10635 10637 10638 10639 10641 10643 10645 10647 10650 10653 10656 10659 10663 10667 10672 10678 10685 10691 10698 10704 10710 10715 10721 10727 10733 10740 10747 10753 10759 10765 10773 10782 10792 10800 10805 10810 10816 10823 10831 10839 10846 10852 10857 10864 10872 10880 10886 10891 10896 10901 10905 10909 10913 10918 10923 10928 10934 10939 10944 10949 10954 10958 10962 10965 10969 10973 10977 10981 10984
10659 10654 10650 10646 10642 10638 10635 10632 10630 10628 10628 10627 10628 10628 10629 10629 10630 10631 10632 10633 10634 10636 10637 10639 10640 10642 10645 10647 10649 10652 10655 10659 10664 10668 10674 10679 10684 10691 10698 10704 10709 10715 10721 10727 10733 10740 10746 10753 10760 10768 10776 10785 10792 10797 10803 10810 10818 10826 10835 10842 10848 10854 10860 10866 10872 10875 10881 10888 10893 10898 10902 10906 10910 10915 10922 10926 10930 10936 10941 10946 10951 10955 10959 10963 10968 10972 10976 10979
10656 10650 10646 10642 10638 10635 10631 10628 10626 10625 10625 10624 10625 10625 10626 10626 10627 10628 10629 10630 10631 10632 10634 10636 10637 10639 10641 10643 10645 10648 10651 10655 10659 10664 10668 10672 10678 10685 10691 10697 10703 10709 10714 10720 10727 10734 10740 10746 10753 10761 10769 10777 10784 10791 10799 10807 10815 10824 10832 10838 10844 10848 10854 10860 10864 10869 10876 10883 10888 10893 10896 10900 10904 10909 10916 10920 10923 10929 10934 10939 10944 10949 10954 10958 10962 10966 10971 10975
10651 10646 10642 10638 10634 10631 10627 10624 10623 10622 10621 10621 10622 10622 10623 10623 10625 10625 10626 10627 10628 10629 10630 10632 10634 10635 10636 10638 10641 10644 10647 10650 10655 10659 10662 10666 10672 10678 10684 10690 10696 10702 10708 10714 10721 10728 10734 10741 10748 10755 10764 10772 10780 10790 10799 10806 10813 10820 10826 10831 10836 10841 10846 10852 10858 10865 10872 10877 10882 10887 10890 10894 10899 10903 10909 10914 10917 10922 10927 10933 10938 10943 10948 10952 10956 10960 10965 10970
10647 10642 10638 10633 10629 10626 10623 10621 10619 10618 10618 10618 10618 10619 10619 10620 10621 10622 10622 10623 10624 10625 10626 10627 10629 10630 10631 10633 10635 10639 10642 10646 10649 10653 10656 10660 10666 10671 10677 10683 10689 10695 10701 10708 10716 10722 10728 10735 10743 10750 10758 10766 10775 10784 10791 10797 10804 10810 10816 10823 10828 10833 10838 10844 10850 10858 10864 10869 10874 10879 10883 10886 10891 10895 10900 10906 10910 10914 10919 10925 10931 10937 10941 10945 10949 10954 10959 10964
10643 10638 10634 10629 10624 10621 10618 10616 10615 10614 10614 10614 10615 10616 10616 10617 10618 10619 10619 10619 10619 10620 10621 10622 10623 10624 10625 10627 10630 10633 10637 10640 10643 10647 10650 10655 10660 10666 10671 10677 10682 10688 10695 10703 10710 10717 10723 10730 10738 10745 10753 10760 10767 10775 10781 10788 10795 10800 10806 10813 10818 10824 10830 10836 10843 10849 10854 10860 10866 10871 10874 10878 10883 10888 10893 10899 10903 10908 10912 10918 10924 10930 10934 10938 10943 10948 10953 10958
10639 10633 10629 10625 10620 10616 10613 10612 10612 10611 10610 10611 10612 10613 10613 10613 10614 10615 10616 10615 10615 10615 10615 10616 10616 10617 10619 10621 10624 10627 10631 10635 10638 10641 10645 10650 10654 10659 10664 10670 10675 10682 10690 10698 10705 10711 10718 10725 10732 10740 10747 10754 10760 10768 10775 10781 10787 10792 10798 10804 10809 10816 10822 10829 10835 10840 10846 10852 10856 10861 10865 10869 10875 10881 10886 10892 10896 10900 10905 10910 10916 10922 10928 10932 10937 10943 10947 10952
10634 10629 10624 10620 10615 10612 10609 10608 10608 10607 10607 10608 10609 10610 10610 10610 10611 10611 10612 10611 10610 10610 10609 10609 10609 10610 10612 10614 10616 10620 10623 10627 10631 10635 10640 10644 10648 10653 10658 10663 10669 10677 10685 10692 10699 10706 10713 10720 10727 10734 10740 10747 10753 10760 10768 10774 10780 10786 10791 10796 10802 10809 10815 10822 10827 10832 10838 10844 10848 10852 10857 10861 10866 10873 10879 10885 10890 10893 10897 10902 10908 10915 10921 10926 10931 10936 10940 10946
10629 10624 10619 10615 10611 10608 10606 10605 10604 10604 10605 10606 10607 10607 10607 10607 10607 10608 10607 10607 10606 10605 10604 10603 10603 10603 10605 10607 10609 10613 10616 10620 10624 10628 10633 10638 10642 10647 10652 10658 10664 10672 10679 10686 10693 10700 10706 10713 10720 10727 10733 10739 10745 10753 10760 10766 10772 10779 10784 10789 10795 10801 10807 10814 10819 10824 10830 10835 10839 10844 10849 10853 10859 10866 10872 10877 10881 10885 10890 10896 10902 10908 10914 10920 10924 10929 10934 10940
10623 10618 10614 10610 10607 10604 10602 10601 10600 10601 10602 10603 10604 10604 10604 10604 10604 10604 10603 10602 10601 10599 10598 10598 10597 10597 10599 10601 10603 10606 10609 10613 10617 10622 10626 10631 10636 10642 10647 10653 10660 10666 10673 10680 10687 10693 10699 10707 10715 10721 10727 10732 10738 10745 10752 10759 10765 10771 10776 10782 10788 10794 10800 10805 10811 10816 10821 10826 10832 10837 10841 10845 10850 10857 10862 10867 10873 10878 10883 10889 10895 10902 10907 10912 10917 10921 10927 10933
10619 10613 10609 10605 10602 10600 10599 10598 10598 10598 10599 10601 10601 10602 10601 10601 10601 10600 10599 10598 10596 10594 10593 10593 10592 10592 10593 10595 10597 10600 10603 10606 10610 10615 10620 10625 10631 10636 10641 10648 10655 10661 10668 10674 10680 10687 10695 10702 10709 10714 10719 10725 10732 10738 10744 10751 10757 10761 10767 10774 10781 10787 10793 10798 10803 10809 10814 10820 10824 10828 10832 10836 10843 10850 10855 10860 10864 10869 10876 10883 10889 10895 10900 10904 10909 10914 10920 10926